{"data":{"norad_id":59873,"intl_designator":"2024-098R","name":"STARLINK-31940","alt_names":[],"object_type":"PAYLOAD","status":"ACTIVE","operator":null,"country":"US","launch_date":"2024-05-24","launch_site_code":"AFETR","launch_vehicle":null,"mission":null,"orbit_class":"UNKNOWN","rcs_meters":null,"size_class":null,"mass_kg":null,"dimensions":null,"purposes":["comms"],"wikipedia_slug":null,"has_3d_model":false,"image_url":null,"decayed_at":null,"tle_current":{"epoch":"2026-09-21T15:34:53.606784Z","epoch_age_seconds":75193,"freshness":"FRESH","line1":"1 59873U 24098R   26264.64923156 -.00000695  00000+0 -15725-4 0  9996","line2":"2 59873  43.0055 243.6999 0001686 261.9526  98.1134 15.27564970131901","mean_motion":15.2756497,"eccentricity":0.0001686,"inclination_deg":43.0055,"raan_deg":243.6999,"arg_perigee_deg":261.9526,"mean_anomaly_deg":98.1134,"bstar":-1.5725e-5,"rev_number":13190,"period_min":94.267676221981,"perigee_km":481.93729807194,"apogee_km":484.25090519942,"semimajor_km":6861.2311016357,"source":"CELESTRAK","updated_at":"2026-09-22T09:00:49.103444Z"}}}